Location: Waco, TX
(31.5480°N, 97.1670°W)
Time: 12:18:27
(UTC-05:00)

ISS - Pass Details

Date: 26 May 2018
Orbit: 402 x 408 km, 51.6° (Epoch: 19 September)

Event Time Altitude Azimuth Distance (km) Brightness Sun altitude
Rises 18:36:47 0° 202° (SSW) 2,318 0.1 21.0°
Reaches altitude 10° 18:39:03 10° 189° (S) 1,459 -1.0 20.5°
Maximum altitude 18:41:52 27° 129° (SE) 815 -2.6 19.9°
Drops below altitude 10° 18:44:42 10° 69° (ENE) 1,459 -1.4 19.3°
Sets 18:46:57 0° 57° (ENE) 2,319 -0.4 18.9°
